| time (UTC) | temp F | wind direction | speed MPH | gust MPH | rain 1hr in | rain 24hr in | rain mn in | humidity % | barometer mb |
| 20260505230441 | 47 | 7 | 8.0 | 14.0 | 0.00 | 0.00 | 0.00 | 47 | 1019.3 |
| 20260505225937 | 47 | 32 | 8.0 | 10.0 | 0.00 | 0.00 | 0.00 | 46 | 1019.4 |
| 20260505225435 | 47 | 334 | 10.0 | 11.0 | 0.00 | 0.00 | 0.00 | 47 | 1019.2 |
| 20260505224930 | 47 | 297 | 6.0 | 8.0 | 0.00 | 0.00 | 0.00 | 47 | 1018.9 |
| 20260505224427 | 47 | 328 | 5.0 | 7.0 | 0.00 | 0.00 | 0.00 | 47 | 1019.2 |
| 20260505223924 | 48 | 335 | 6.0 | 9.0 | 0.00 | 0.00 | 0.00 | 47 | 1019.3 |
| 20260505223421 | 48 | 20 | 4.0 | 6.0 | 0.00 | 0.00 | 0.00 | 47 | 1019.3 |
| 20260505222918 | 48 | 327 | 6.0 | 7.0 | 0.00 | 0.00 | 0.00 | 48 | 1019.3 |
| 20260505222414 | 48 | 323 | 3.0 | 3.0 | 0.00 | 0.00 | 0.00 | 50 | 1019.5 |
| 20260505221910 | 48 | 6 | 6.0 | 8.0 | 0.00 | 0.00 | 0.00 | 48 | 1019.4 |
| 20260505221407 | 48 | 332 | 7.0 | 9.0 | 0.00 | 0.00 | 0.00 | 49 | 1019.3 |
| 20260505220904 | 48 | 32 | 10.0 | 13.0 | 0.00 | 0.00 | 0.00 | 51 | 1019.2 |
| 20260505220401 | 48 | 5 | 5.0 | 8.0 | 0.00 | 0.00 | 0.00 | 53 | 1019.2 |
| 20260505215859 | 48 | 325 | 7.0 | 8.0 | 0.00 | 0.00 | 0.00 | 52 | 1019.3 |
| 20260505215357 | 48 | 279 | 7.0 | 9.0 | 0.00 | 0.00 | 0.00 | 51 | 1019.1 |
| 20260505214855 | 48 | 298 | 9.0 | 10.0 | 0.00 | 0.00 | 0.00 | 50 | 1019.2 |
| 20260505214352 | 48 | 357 | 7.0 | 9.0 | 0.00 | 0.00 | 0.00 | 50 | 1019.2 |
| 20260505213849 | 48 | 7 | 6.0 | 9.0 | 0.00 | 0.00 | 0.00 | 51 | 1019.2 |
| 20260505213347 | 48 | 300 | 6.0 | 8.0 | 0.00 | 0.00 | 0.00 | 52 | 1019.1 |
| 20260505212843 | 49 | 27 | 9.0 | 14.0 | 0.00 | 0.00 | 0.00 | 47 | 1019.2 |
| 20260505212340 | 48 | 330 | 8.0 | 10.0 | 0.00 | 0.00 | 0.00 | 50 | 1019.2 |
| 20260505211836 | 48 | 322 | 9.0 | 13.0 | 0.00 | 0.00 | 0.00 | 47 | 1019.2 |
| 20260505211334 | 49 | 2 | 6.0 | 7.0 | 0.00 | 0.00 | 0.00 | 49 | 1019.3 |
| 20260505210830 | 49 | 292 | 8.0 | 9.0 | 0.00 | 0.00 | 0.00 | 48 | 1019.4 |
| 20260505210327 | 49 | 269 | 7.0 | 9.0 | 0.00 | 0.00 | 0.00 | 49 | 1019.2 |
| 20260505205824 | 48 | 329 | 10.0 | 13.0 | 0.00 | 0.00 | 0.00 | 52 | 1019.3 |
| 20260505205322 | 49 | 59 | 5.0 | 7.0 | 0.00 | 0.00 | 0.00 | 53 | 1019.1 |
| 20260505204818 | 49 | 291 | 10.0 | 17.0 | 0.00 | 0.00 | 0.00 | 52 | 1018.9 |
| 20260505204317 | 51 | 321 | 7.0 | 10.0 | 0.00 | 0.00 | 0.00 | 51 | 1019.1 |
| 20260505203814 | 51 | 354 | 5.0 | 7.0 | 0.00 | 0.00 | 0.00 | 48 | 1019.2 |
| 20260505203310 | 51 | 33 | 6.0 | 7.0 | 0.00 | 0.00 | 0.00 | 43 | 1018.8 |
| 20260505202806 | 50 | 71 | 9.0 | 13.0 | 0.00 | 0.00 | 0.00 | 46 | 1019.1 |
| 20260505202306 | 50 | 310 | 9.0 | 10.0 | 0.00 | 0.00 | 0.00 | 43 | 1019.1 |
| 20260505201800 | 51 | 23 | 6.0 | 8.0 | 0.00 | 0.00 | 0.00 | 42 | 1018.8 |
| 20260505201257 | 51 | 336 | 7.0 | 8.0 | 0.00 | 0.00 | 0.00 | 43 | 1018.9 |
| 20260505200755 | 50 | 17 | 6.0 | 10.0 | 0.00 | 0.00 | 0.00 | 44 | 1019.2 |
| 20260505200252 | 50 | 306 | 6.0 | 9.0 | 0.00 | 0.00 | 0.00 | 42 | 1019.2 |
| 20260505195747 | 50 | 5 | 8.0 | 11.0 | 0.00 | 0.00 | 0.00 | 40 | 1019.2 |
| 20260505195245 | 51 | 298 | 9.0 | 11.0 | 0.00 | 0.00 | 0.00 | 40 | 1019.1 |
| 20260505194742 | 51 | 353 | 5.0 | 6.0 | 0.00 | 0.00 | 0.00 | 42 | 1019.2 |
| 20260505194238 | 52 | 320 | 7.0 | 9.0 | 0.00 | 0.00 | 0.00 | 42 | 1019.3 |
| 20260505193734 | 52 | 333 | 4.0 | 7.0 | 0.00 | 0.00 | 0.00 | 44 | 1019.4 |
| 20260505193232 | 51 | 303 | 10.0 | 11.0 | 0.00 | 0.00 | 0.00 | 43 | 1019.4 |
| 20260505192730 | 50 | 314 | 8.0 | 11.0 | 0.00 | 0.00 | 0.00 | 43 | 1019.5 |
| 20260505192228 | 50 | 50 | 3.0 | 5.0 | 0.00 | 0.00 | 0.00 | 43 | 1019.4 |
| 20260505191726 | 50 | 26 | 7.0 | 9.0 | 0.00 | 0.00 | 0.00 | 45 | 1019.5 |
| 20260505191224 | 50 | 57 | 5.0 | 7.0 | 0.00 | 0.00 | 0.00 | 46 | 1019.4 |
| 20260505190720 | 49 | 354 | 4.0 | 5.0 | 0.00 | 0.00 | 0.00 | 45 | 1019.3 |
| 20260505190219 | 48 | 351 | 3.0 | 6.0 | 0.00 | 0.00 | 0.00 | 46 | 1019.4 |
| 20260505185716 | 50 | 17 | 6.0 | 7.0 | 0.00 | 0.00 | 0.00 | 44 | 1019.1 |
| 20260505185213 | 50 | 25 | 4.0 | 5.0 | 0.00 | 0.00 | 0.00 | 44 | 1019.4 |
| 20260505184709 | 51 | 317 | 6.0 | 8.0 | 0.00 | 0.00 | 0.00 | 44 | 1019.2 |
| 20260505184207 | 49 | 10 | 7.0 | 10.0 | 0.00 | 0.00 | 0.00 | 45 | 1019.1 |
| 20260505183703 | 49 | 323 | 6.0 | 7.0 | 0.00 | 0.00 | 0.00 | 45 | 1019.4 |
| 20260505183201 | 48 | 332 | 2.0 | 3.0 | 0.00 | 0.00 | 0.00 | 45 | 1019.3 |
| 20260505182656 | 49 | 34 | 4.0 | 6.0 | 0.00 | 0.00 | 0.00 | 45 | 1019.5 |
| 20260505182154 | 49 | 7 | 5.0 | 6.0 | 0.00 | 0.00 | 0.00 | 45 | 1019.3 |
| 20260505181650 | 49 | 17 | 6.0 | 7.0 | 0.00 | 0.00 | 0.00 | 45 | 1019.2 |
| 20260505181148 | 49 | 12 | 4.0 | 5.0 | 0.00 | 0.00 | 0.00 | 45 | 1019.2 |
| 20260505180644 | 48 | 36 | 5.0 | 7.0 | 0.00 | 0.00 | 0.00 | 46 | 1019.3 |
| 20260505180141 | 48 | 7 | 5.0 | 7.0 | 0.00 | 0.00 | 0.00 | 45 | 1019.2 |
| 20260505175637 | 49 | 329 | 3.0 | 5.0 | 0.00 | 0.00 | 0.00 | 47 | 1019.4 |
| 20260505175134 | 51 | 11 | 5.0 | 7.0 | 0.00 | 0.00 | 0.00 | 45 | 1019.2 |
| 20260505174630 | 50 | 6 | 6.0 | 8.0 | 0.00 | 0.00 | 0.00 | 46 | 1019.3 |
| 20260505174126 | 49 | 16 | 9.0 | 9.0 | 0.00 | 0.00 | 0.00 | 47 | 1019.2 |
| 20260505173623 | 49 | 53 | 2.0 | 3.0 | 0.00 | 0.00 | 0.00 | 50 | 1019.4 |
| 20260505173120 | 49 | 350 | 3.0 | 5.0 | 0.00 | 0.00 | 0.00 | 48 | 1019.2 |
| 20260505172618 | 49 | 340 | 3.0 | 3.0 | 0.00 | 0.00 | 0.00 | 48 | 1019.4 |
| 20260505172114 | 49 | 273 | 3.0 | 5.0 | 0.00 | 0.00 | 0.00 | 48 | 1019.2 |
| 20260505171609 | 48 | 329 | 4.0 | 6.0 | 0.00 | 0.00 | 0.00 | 47 | 1019.5 |
| 20260505171106 | 47 | 340 | 5.0 | 6.0 | 0.00 | 0.00 | 0.00 | 49 | 1019.3 |
| 20260505170603 | 47 | 264 | 7.0 | 8.0 | 0.00 | 0.00 | 0.00 | 49 | 1019.6 |
| 20260505170059 | 46 | 272 | 10.0 | 13.0 | 0.00 | 0.00 | 0.00 | 49 | 1019.6 |
| 20260505165554 | 46 | 284 | 9.0 | 10.0 | 0.00 | 0.00 | 0.00 | 49 | 1019.4 |
| 20260505165051 | 46 | 284 | 2.0 | 3.0 | 0.00 | 0.00 | 0.00 | 51 | 1019.5 |
| 20260505164546 | 46 | 298 | 7.0 | 9.0 | 0.00 | 0.00 | 0.00 | 51 | 1019.5 |
| 20260505164044 | 45 | 314 | 3.0 | 5.0 | 0.00 | 0.00 | 0.00 | 52 | 1019.5 |
| 20260505163543 | 46 | 345 | 2.0 | 2.0 | 0.00 | 0.00 | 0.00 | 52 | 1019.6 |
| 20260505163039 | 46 | 312 | 6.0 | 7.0 | 0.00 | 0.00 | 0.00 | 52 | 1019.6 |
| 20260505162532 | 45 | 292 | 3.0 | 3.0 | 0.00 | 0.00 | 0.00 | 52 | 1019.6 |
| 20260505162029 | 45 | 56 | 2.0 | 2.0 | 0.00 | 0.00 | 0.00 | 53 | 1019.6 |
| 20260505161526 | 46 | 291 | 7.0 | 8.0 | 0.00 | 0.00 | 0.00 | 51 | 1019.7 |
| 20260505161023 | 45 | 7 | 0.0 | 1.0 | 0.00 | 0.00 | 0.00 | 51 | 1019.5 |
| 20260505160521 | 44 | 347 | 0.0 | 0.0 | 0.00 | 0.00 | 0.00 | 53 | 1019.6 |
| 20260505152957 | 44 | 359 | 3.0 | 3.0 | 0.00 | 0.00 | 0.00 | 57 | 1019.7 |
| 20260505152455 | 44 | 26 | 1.0 | 1.0 | 0.00 | 0.00 | 0.00 | 56 | 1019.8 |
| 20260505151950 | 43 | 7 | 1.0 | 1.0 | 0.00 | 0.00 | 0.00 | 58 | 1019.8 |
| 20260505151445 | 43 | 26 | 2.0 | 3.0 | 0.00 | 0.00 | 0.00 | 57 | 1019.6 |
| 20260505150943 | 43 | 40 | 1.0 | 1.0 | 0.00 | 0.00 | 0.00 | 59 | 1019.8 |
| 20260505150439 | 42 | 333 | 3.0 | 5.0 | 0.00 | 0.00 | 0.00 | 59 | 1019.8 |
| 20260505140410 | 38 | 272 | 3.0 | 3.0 | 0.00 | 0.00 | 0.00 | 70 | 1019.5 |
| 20260505124823 | 33 | 40 | 0.0 | 0.0 | 0.00 | 0.00 | 0.00 | 78 | 1018.7 |
| 20260505124320 | 33 | 40 | 0.0 | 0.0 | 0.00 | 0.00 | 0.00 | 78 | 1018.7 |
| 20260505123816 | 33 | 40 | 0.0 | 0.0 | 0.00 | 0.00 | 0.00 | 77 | 1018.7 |
| 20260505123313 | 32 | 40 | 0.0 | 0.0 | 0.00 | 0.00 | 0.00 | 78 | 1018.6 |
| 20260505122809 | 32 | 45 | 0.0 | 0.0 | 0.00 | 0.00 | 0.00 | 77 | 1018.8 |
| 20260505122307 | 33 | 178 | 0.0 | 0.0 | 0.00 | 0.00 | 0.00 | 75 | 1018.6 |
| 20260505121803 | 33 | 178 | 2.0 | 2.0 | 0.00 | 0.00 | 0.00 | 74 | 1018.5 |
| 20260505121300 | 32 | 173 | 0.0 | 1.0 | 0.00 | 0.00 | 0.00 | 76 | 1018.5 |
| 20260505120756 | 32 | 173 | 1.0 | 2.0 | 0.00 | 0.00 | 0.00 | 78 | 1018.4 |
| 20260505120252 | 31 | 88 | 1.0 | 2.0 | 0.00 | 0.00 | 0.00 | 81 | 1018.4 |
| 20260505115751 | 31 | 81 | 2.0 | 2.0 | 0.00 | 0.00 | 0.00 | 79 | 1018.5 |
| 20260505115249 | 32 | 78 | 0.0 | 0.0 | 0.00 | 0.00 | 0.00 | 77 | 1018.5 |
| 20260505114746 | 32 | 79 | 0.0 | 0.0 | 0.00 | 0.00 | 0.00 | 77 | 1018.3 |
| 20260505114242 | 32 | 78 | 0.0 | 0.0 | 0.00 | 0.00 | 0.00 | 78 | 1018.4 |
| 20260505113739 | 32 | 78 | 1.0 | 1.0 | 0.00 | 0.00 | 0.00 | 77 | 1018.3 |
| 20260505113235 | 32 | 107 | 1.0 | 1.0 | 0.00 | 0.00 | 0.00 | 76 | 1017.9 |
| 20260505112731 | 33 | 167 | 1.0 | 1.0 | 0.00 | 0.00 | 0.00 | 75 | 1018.2 |
| 20260505112229 | 33 | 172 | 1.0 | 1.0 | 0.00 | 0.00 | 0.00 | 75 | 1018.3 |
| 20260505111729 | 33 | 170 | 0.0 | 0.0 | 0.00 | 0.00 | 0.00 | 75 | 1018.3 |
| 20260505111225 | 33 | 159 | 0.0 | 1.0 | 0.00 | 0.00 | 0.00 | 74 | 1018.3 |
| 20260505110721 | 33 | 164 | 1.0 | 1.0 | 0.00 | 0.00 | 0.00 | 73 | 1018.2 |
| 20260505110219 | 34 | 178 | 1.0 | 2.0 | 0.00 | 0.00 | 0.00 | 74 | 1018.3 |
| 20260505102154 | 35 | 13 | 0.0 | 0.0 | 0.00 | 0.00 | 0.00 | 71 | 1018.3 |
| 20260505101653 | 35 | 1 | 0.0 | 0.0 | 0.00 | 0.00 | 0.00 | 71 | 1018.0 |
| 20260505101149 | 36 | 267 | 0.0 | 1.0 | 0.00 | 0.00 | 0.00 | 69 | 1018.2 |
| 20260505100645 | 36 | 265 | 2.0 | 2.0 | 0.00 | 0.00 | 0.00 | 68 | 1018.0 |
| 20260505100142 | 36 | 273 | 3.0 | 3.0 | 0.00 | 0.00 | 0.00 | 69 | 1017.9 |
| 20260505095638 | 35 | 259 | 3.0 | 3.0 | 0.00 | 0.00 | 0.00 | 69 | 1018.2 |
| 20260505095136 | 35 | 244 | 0.0 | 0.0 | 0.00 | 0.00 | 0.00 | 71 | 1018.2 |
| 20260505094631 | 35 | 243 | 1.0 | 1.0 | 0.00 | 0.00 | 0.00 | 70 | 1018.3 |
| 20260505094128 | 35 | 242 | 1.0 | 1.0 | 0.00 | 0.00 | 0.00 | 70 | 1017.9 |
| 20260505093624 | 35 | 243 | 2.0 | 2.0 | 0.00 | 0.00 | 0.00 | 70 | 1017.9 |
| 20260505093121 | 35 | 235 | 2.0 | 2.0 | 0.00 | 0.00 | 0.00 | 70 | 1017.9 |
| 20260505092619 | 35 | 118 | 0.0 | 0.0 | 0.00 | 0.00 | 0.00 | 71 | 1017.8 |
| 20260505092118 | 34 | 107 | 0.0 | 0.0 | 0.00 | 0.00 | 0.00 | 72 | 1017.7 |
| 20260505091613 | 34 | 135 | 0.0 | 0.0 | 0.00 | 0.00 | 0.00 | 72 | 1017.9 |
| 20260505091112 | 35 | 135 | 0.0 | 0.0 | 0.00 | 0.00 | 0.00 | 71 | 1017.9 |
| 20260505090610 | 35 | 135 | 0.0 | 0.0 | 0.00 | 0.00 | 0.00 | 70 | 1018.0 |
| 20260505090108 | 35 | 109 | 1.0 | 1.0 | 0.00 | 0.00 | 0.00 | 70 | 1017.9 |
| 20260505085605 | 34 | 86 | 0.0 | 0.0 | 0.00 | 0.00 | 0.00 | 72 | 1018.0 |
| 20260505085103 | 35 | 135 | 0.0 | 0.0 | 0.00 | 0.00 | 0.00 | 71 | 1017.9 |
| 20260505084600 | 35 | 133 | 2.0 | 2.0 | 0.00 | 0.00 | 0.00 | 71 | 1017.9 |
| 20260505084058 | 35 | 103 | 2.0 | 2.0 | 0.00 | 0.00 | 0.00 | 71 | 1018.0 |
| 20260505083555 | 35 | 101 | 1.0 | 1.0 | 0.00 | 0.00 | 0.00 | 72 | 1018.0 |
| 20260505083052 | 34 | 101 | 1.0 | 2.0 | 0.00 | 0.00 | 0.00 | 75 | 1018.0 |
| 20260505082548 | 34 | 101 | 0.0 | 1.0 | 0.00 | 0.00 | 0.00 | 74 | 1017.9 |
| 20260505082045 | 33 | 95 | 1.0 | 1.0 | 0.00 | 0.00 | 0.00 | 75 | 1017.9 |
| 20260505081541 | 33 | 93 | 1.0 | 1.0 | 0.00 | 0.00 | 0.00 | 77 | 1017.9 |
| 20260505081038 | 33 | 92 | 2.0 | 2.0 | 0.00 | 0.00 | 0.00 | 76 | 1018.2 |
| 20260505080534 | 35 | 83 | 1.0 | 2.0 | 0.00 | 0.00 | 0.00 | 72 | 1018.0 |
| 20260505080031 | 35 | 74 | 0.0 | 0.0 | 0.00 | 0.00 | 0.00 | 72 | 1018.2 |
| 20260505075527 | 35 | 106 | 0.0 | 0.0 | 0.00 | 0.00 | 0.00 | 72 | 1018.2 |
| 20260505075024 | 35 | 106 | 0.0 | 0.0 | 0.00 | 0.00 | 0.00 | 72 | 1018.0 |
| 20260505074521 | 35 | 106 | 0.0 | 0.0 | 0.00 | 0.00 | 0.00 | 73 | 1018.0 |
| 20260505074019 | 35 | 106 | 0.0 | 1.0 | 0.00 | 0.00 | 0.00 | 73 | 1017.8 |
| 20260505073516 | 35 | 84 | 0.0 | 0.0 | 0.00 | 0.00 | 0.00 | 73 | 1018.0 |
| 20260505073014 | 36 | 84 | 0.0 | 0.0 | 0.00 | 0.00 | 0.00 | 71 | 1017.9 |
| 20260505072509 | 34 | 100 | 2.0 | 2.0 | 0.00 | 0.00 | 0.00 | 74 | 1017.9 |
| 20260505072006 | 36 | 85 | 3.0 | 3.0 | 0.00 | 0.00 | 0.00 | 69 | 1017.9 |
| 20260505071502 | 36 | 195 | 0.0 | 0.0 | 0.00 | 0.00 | 0.00 | 67 | 1017.9 |
| 20260505071000 | 37 | 195 | 0.0 | 0.0 | 0.00 | 0.00 | 0.00 | 67 | 1017.9 |
| 20260505070456 | 38 | 194 | 0.0 | 0.0 | 0.00 | 0.00 | 0.00 | 66 | 1018.0 |
| 20260505065952 | 37 | 194 | 0.0 | 0.0 | 0.00 | 0.00 | 0.00 | 66 | 1017.9 |
| 20260505065448 | 38 | 194 | 0.0 | 0.0 | 0.00 | 0.00 | 0.00 | 64 | 1018.2 |
| 20260505064945 | 38 | 194 | 0.0 | 0.0 | 0.00 | 0.00 | 0.00 | 65 | 1018.2 |
| 20260505064442 | 39 | 194 | 0.0 | 0.0 | 0.00 | 0.00 | 0.00 | 60 | 1017.9 |
| 20260505063941 | 39 | 194 | 0.0 | 0.0 | 0.00 | 0.00 | 0.00 | 59 | 1017.8 |
| 20260505063437 | 39 | 194 | 0.0 | 0.0 | 0.00 | 0.00 | 0.00 | 61 | 1017.9 |
| 20260505062933 | 39 | 233 | 2.0 | 2.0 | 0.00 | 0.00 | 0.00 | 60 | 1018.0 |
| 20260505062431 | 40 | 296 | 0.0 | 0.0 | 0.00 | 0.00 | 0.00 | 59 | 1018.0 |
| 20260505061927 | 41 | 278 | 0.0 | 0.0 | 0.00 | 0.00 | 0.00 | 56 | 1017.9 |
| 20260505061426 | 41 | 285 | 1.0 | 1.0 | 0.00 | 0.00 | 0.00 | 56 | 1017.7 |
| 20260505060923 | 41 | 292 | 2.0 | 2.0 | 0.00 | 0.00 | 0.00 | 55 | 1017.9 |
| 20260505060420 | 42 | 311 | 3.0 | 3.0 | 0.00 | 0.00 | 0.00 | 54 | 1017.8 |
| 20260505055916 | 42 | 0 | 1.0 | 2.0 | 0.00 | 0.00 | 0.00 | 54 | 1017.9 |
| 20260505055412 | 43 | 7 | 0.0 | 0.0 | 0.00 | 0.00 | 0.00 | 52 | 1017.7 |
| 20260505054909 | 43 | 5 | 2.0 | 2.0 | 0.00 | 0.00 | 0.00 | 51 | 1018.2 |
| 20260505054406 | 44 | 240 | 3.0 | 3.0 | 0.00 | 0.00 | 0.00 | 50 | 1017.7 |
| 20260505053904 | 44 | 246 | 3.0 | 3.0 | 0.00 | 0.00 | 0.00 | 49 | 1017.8 |
| 20260505053401 | 43 | 137 | 1.0 | 1.0 | 0.00 | 0.00 | 0.00 | 50 | 1017.7 |
| 20260505052858 | 43 | 136 | 1.0 | 1.0 | 0.00 | 0.00 | 0.00 | 53 | 1018.0 |
| 20260505052355 | 43 | 137 | 1.0 | 2.0 | 0.00 | 0.00 | 0.00 | 52 | 1017.9 |
| 20260505051852 | 43 | 136 | 0.0 | 0.0 | 0.00 | 0.00 | 0.00 | 52 | 1017.8 |
| 20260505051349 | 43 | 136 | 0.0 | 1.0 | 0.00 | 0.00 | 0.00 | 53 | 1017.8 |
| 20260505050847 | 42 | 136 | 0.0 | 0.0 | 0.00 | 0.00 | 0.00 | 54 | 1017.8 |
| 20260505050346 | 43 | 136 | 1.0 | 1.0 | 0.00 | 0.00 | 0.00 | 54 | 1017.9 |
| 20260505041313 | 45 | 322 | 5.0 | 6.0 | 0.00 | 0.00 | 0.00 | 49 | 1017.7 |
| 20260505040810 | 45 | 327 | 3.0 | 3.0 | 0.00 | 0.00 | 0.00 | 50 | 1017.6 |
| 20260505040307 | 45 | 328 | 3.0 | 3.0 | 0.00 | 0.00 | 0.00 | 50 | 1017.8 |
| 20260505035804 | 46 | 333 | 2.0 | 3.0 | 0.00 | 0.00 | 0.00 | 48 | 1017.6 |
| 20260505035259 | 46 | 295 | 3.0 | 5.0 | 0.00 | 0.00 | 0.00 | 48 | 1017.7 |
| 20260505034757 | 46 | 305 | 3.0 | 3.0 | 0.00 | 0.00 | 0.00 | 49 | 1017.5 |
| 20260505034254 | 45 | 333 | 3.0 | 3.0 | 0.00 | 0.00 | 0.00 | 50 | 1017.4 |
| 20260505033750 | 44 | 2 | 3.0 | 3.0 | 0.00 | 0.00 | 0.00 | 52 | 1017.5 |
| 20260505033248 | 44 | 9 | 2.0 | 2.0 | 0.00 | 0.00 | 0.00 | 55 | 1017.6 |
| 20260505032746 | 45 | 2 | 2.0 | 3.0 | 0.00 | 0.00 | 0.00 | 53 | 1017.3 |
| 20260505032241 | 46 | 2 | 1.0 | 1.0 | 0.00 | 0.00 | 0.00 | 52 | 1017.5 |
| 20260505031739 | 46 | 357 | 1.0 | 1.0 | 0.00 | 0.00 | 0.00 | 50 | 1017.4 |
| 20260505031235 | 46 | 316 | 3.0 | 3.0 | 0.00 | 0.00 | 0.00 | 49 | 1017.2 |
| 20260505030732 | 46 | 20 | 0.0 | 1.0 | 0.00 | 0.00 | 0.00 | 52 | 1017.0 |
| 20260505030228 | 46 | 350 | 2.0 | 2.0 | 0.00 | 0.00 | 0.00 | 53 | 1017.2 |
| 20260505025724 | 47 | 4 | 2.0 | 2.0 | 0.00 | 0.00 | 0.00 | 50 | 1016.9 |
| 20260505025223 | 47 | 17 | 2.0 | 2.0 | 0.00 | 0.00 | 0.00 | 48 | 1017.2 |
| 20260505024720 | 47 | 353 | 2.0 | 5.0 | 0.00 | 0.00 | 0.00 | 47 | 1016.9 |
| 20260505024217 | 47 | 14 | 2.0 | 2.0 | 0.00 | 0.00 | 0.00 | 48 | 1016.9 |
| 20260505023715 | 48 | 329 | 3.0 | 3.0 | 0.00 | 0.00 | 0.00 | 48 | 1017.0 |
| 20260505023212 | 48 | 331 | 3.0 | 3.0 | 0.00 | 0.00 | 0.00 | 47 | 1016.9 |
| 20260505022709 | 48 | 314 | 5.0 | 7.0 | 0.00 | 0.00 | 0.00 | 47 | 1017.2 |
| 20260505022206 | 48 | 347 | 3.0 | 5.0 | 0.00 | 0.00 | 0.00 | 49 | 1017.0 |
| 20260505021703 | 48 | 19 | 3.0 | 3.0 | 0.00 | 0.00 | 0.00 | 50 | 1017.0 |
| 20260505021200 | 49 | 2 | 2.0 | 3.0 | 0.00 | 0.00 | 0.00 | 50 | 1016.8 |
| 20260505020655 | 49 | 0 | 4.0 | 5.0 | 0.00 | 0.00 | 0.00 | 48 | 1016.9 |
| 20260505020151 | 50 | 325 | 3.0 | 5.0 | 0.00 | 0.00 | 0.00 | 46 | 1016.9 |
| 20260505015649 | 50 | 332 | 7.0 | 9.0 | 0.00 | 0.00 | 0.00 | 44 | 1016.6 |
| 20260505015145 | 50 | 19 | 7.0 | 9.0 | 0.00 | 0.00 | 0.00 | 45 | 1016.7 |
| 20260505014642 | 51 | 2 | 6.0 | 8.0 | 0.00 | 0.00 | 0.00 | 45 | 1016.8 |
| 20260505014139 | 51 | 351 | 4.0 | 7.0 | 0.00 | 0.00 | 0.00 | 46 | 1016.8 |
| 20260505013637 | 51 | 20 | 5.0 | 6.0 | 0.00 | 0.00 | 0.00 | 46 | 1016.7 |
| 20260505013133 | 51 | 45 | 5.0 | 6.0 | 0.00 | 0.00 | 0.00 | 47 | 1016.8 |
| 20260505012632 | 51 | 355 | 5.0 | 7.0 | 0.00 | 0.00 | 0.00 | 48 | 1016.8 |
| 20260505012128 | 51 | 13 | 6.0 | 8.0 | 0.00 | 0.00 | 0.00 | 49 | 1016.6 |
| 20260505011624 | 51 | 354 | 5.0 | 7.0 | 0.00 | 0.00 | 0.00 | 49 | 1016.6 |
| 20260505011122 | 51 | 335 | 3.0 | 5.0 | 0.00 | 0.00 | 0.00 | 52 | 1016.7 |
| 20260505010617 | 51 | 14 | 5.0 | 8.0 | 0.00 | 0.00 | 0.00 | 53 | 1016.7 |
| 20260505010114 | 52 | 5 | 3.0 | 3.0 | 0.00 | 0.00 | 0.00 | 53 | 1016.8 |
| 20260505005610 | 52 | 358 | 6.0 | 8.0 | 0.00 | 0.00 | 0.00 | 49 | 1016.7 |
| 20260505005107 | 52 | 321 | 6.0 | 9.0 | 0.00 | 0.00 | 0.00 | 51 | 1016.6 |
| 20260505004604 | 52 | 348 | 3.0 | 3.0 | 0.00 | 0.00 | 0.00 | 50 | 1016.7 |
| 20260505004101 | 52 | 20 | 6.0 | 8.0 | 0.00 | 0.00 | 0.00 | 51 | 1016.8 |
| 20260505003558 | 52 | 329 | 4.0 | 6.0 | 0.00 | 0.00 | 0.00 | 50 | 1016.7 |
| 20260505003055 | 53 | 54 | 4.0 | 6.0 | 0.00 | 0.00 | 0.00 | 50 | 1016.7 |
| 20260505002555 | 53 | 336 | 4.0 | 5.0 | 0.00 | 0.00 | 0.00 | 50 | 1016.7 |
| 20260505002049 | 53 | 346 | 4.0 | 5.0 | 0.00 | 0.00 | 0.00 | 50 | 1016.7 |
| 20260505001546 | 53 | 326 | 5.0 | 7.0 | 0.00 | 0.00 | 0.00 | 49 | 1016.7 |
| 20260505001043 | 53 | 349 | 5.0 | 7.0 | 0.00 | 0.00 | 0.00 | 51 | 1016.7 |
| 20260505000541 | 53 | 54 | 3.0 | 6.0 | 0.00 | 0.00 | 0.00 | 51 | 1016.5 |
| 20260505000038 | 53 | 357 | 6.0 | 7.0 | 0.00 | 0.00 | 0.00 | 50 | 1016.5 |
| 20260504235535 | 53 | 322 | 5.0 | 9.0 | 0.00 | 0.00 | 0.00 | 49 | 1016.5 |
| 20260504235031 | 54 | 327 | 7.0 | 9.0 | 0.00 | 0.00 | 0.00 | 49 | 1016.3 |
| 20260504234528 | 54 | 45 | 6.0 | 10.0 | 0.00 | 0.00 | 0.00 | 48 | 1016.5 |
| 20260504234025 | 54 | 295 | 7.0 | 10.0 | 0.00 | 0.00 | 0.00 | 49 | 1016.4 |
| 20260504233520 | 55 | 1 | 8.0 | 9.0 | 0.00 | 0.00 | 0.00 | 48 | 1016.3 |
| 20260504233018 | 55 | 3 | 9.0 | 11.0 | 0.00 | 0.00 | 0.00 | 49 | 1016.1 |
| 20260504232515 | 54 | 311 | 7.0 | 8.0 | 0.00 | 0.00 | 0.00 | 48 | 1016.3 |
| 20260504232012 | 55 | 314 | 9.0 | 11.0 | 0.00 | 0.00 | 0.00 | 45 | 1016.0 |
| 20260504231509 | 56 | 288 | 9.0 | 14.0 | 0.00 | 0.00 | 0.00 | 45 | 1016.0 |
| 20260504231005 | 56 | 323 | 5.0 | 6.0 | 0.00 | 0.00 | 0.00 | 47 | 1016.1 |